Andalusia, AL

12:53 AM CDT on October 22, 2017 (GMT -0500)
Andalusia

Weather History for K79J - March, 2013

Change the Weather History Date:

Sunday, March 31, 2013

  Actual Average (KCEW) Record (KCEW)
Temperature  
Mean Temperature 70 °F -  
Max Temperature 82 °F 76 °F 86 °F (1978)
Min Temperature 57 °F 51 °F 28 °F (2003)
Cooling Degree Days 4    
Growing Degree Days 20 (Base 50)    
Moisture  
Dew Point 57 °F    
Average Humidity 71    
Maximum Humidity 90    
Minimum Humidity 39    
Precipitation  
Precipitation 0.01 in - - ()
Sea Level Pressure  
Sea Level Pressure 29.99 in    
Wind  
Wind Speed 3 mph (WSW)    
Max Wind Speed 14 mph    
Max Gust Speed 22 mph    
Visibility 6 miles    
Events Fog , Rain    
Averages and records for this station are not official NWS values.
T = Trace of Precipitation, MM = Missing Value Source: NWS Daily Summary

Daily Weather History Graph

Daily Weather History Graph

Search for Another Location

Airport or City:

Trip Planner

Search our weather history database for the weather conditions in past years. The results will help you decide how hot, cold, wet, or windy it might be!

Date:

Astronomy

Mar. 31, 2013 Rise Set
Actual Time 6:35 AM CDT 7:04 PM CDT
Civil Twilight 6:10 AM CDT 7:28 PM CDT
Nautical Twilight 5:42 AM CDT 7:57 PM CDT
Astronomical Twilight 5:13 AM CDT 8:26 PM CDT
Moon 11:56 PM CDT (3/31) 9:38 AM CDT (3/31)
Length of Visible Light 13h 18m
Length of Day
12h 29m
Waning Gibbous, 77% of the Moon is Illuminated
Mar 31
Waning Gibbous
Apr 2
Last Quarter
Apr 10
New
Apr 18
First Quarter
Apr 25
Full

Hourly Weather History & Observations

Time (CDT) Temp. Heat Index Dew Point Humidity Pressure Visibility Wind Dir Wind Speed Gust Speed Precip Events Conditions
12:56 AM 62.1 °F - 55.0 °F 78% 30.06 in 8.0 mi Variable 3.5 mph - N/A   Scattered Clouds
1:56 AM 61.0 °F - 55.0 °F 81% 30.05 in 8.0 mi Calm Calm - N/A   Mostly Cloudy
2:56 AM 61.0 °F - 55.0 °F 81% 30.03 in 6.0 mi Calm Calm - N/A   Haze
3:56 AM 60.1 °F - 55.0 °F 83% 30.02 in 3.0 mi Calm Calm - N/A   Haze
4:32 AM 60.8 °F - 55.4 °F 82% 30.03 in 3.0 mi SSW 3.5 mph - N/A   Haze
4:56 AM 60.1 °F - 55.0 °F 83% 30.01 in 2.5 mi Calm Calm - N/A   Haze
5:05 AM 59.0 °F - 53.6 °F 82% 30.02 in 2.0 mi Calm Calm - N/A   Haze
5:14 AM 59.0 °F - 55.4 °F 88% 30.03 in 1.8 mi Calm Calm - N/A   Mostly Cloudy
5:19 AM 59.0 °F - 55.4 °F 88% 30.03 in 1.0 mi Calm Calm - N/A   Mostly Cloudy
5:28 AM 60.8 °F - 55.4 °F 82% 30.03 in 0.8 mi Calm Calm - N/A   Haze
5:54 AM 60.8 °F - 55.4 °F 82% 30.03 in 0.2 mi Calm Calm - 0.00 in Fog , Rain Light Rain
5:56 AM 60.1 °F - 55.9 °F 86% 30.02 in 0.2 mi Calm Calm - 0.00 in Fog , Rain Light Rain
6:56 AM 57.0 °F - 53.1 °F 87% 30.03 in 0.2 mi Calm Calm - 0.00 in Fog , Rain Light Rain
7:53 AM 60.8 °F - 57.2 °F 88% 30.04 in 1.0 mi SW 3.5 mph - 0.00 in Rain Light Rain
7:56 AM 61.0 °F - 57.9 °F 90% 30.04 in 1.8 mi Calm Calm - 0.00 in Rain Light Rain
8:00 AM 62.6 °F - 57.2 °F 82% 30.04 in 3.0 mi Variable 3.5 mph - 0.00 in Rain Light Rain
8:08 AM 62.6 °F - 59.0 °F 88% 30.04 in 4.0 mi SW 3.5 mph - 0.00 in   Scattered Clouds
8:56 AM 66.9 °F - 60.1 °F 79% 30.04 in 10.0 mi West 4.6 mph - 0.00 in   Clear
9:40 AM 71.6 °F - 60.8 °F 69% 30.05 in 10.0 mi WNW 5.8 mph - N/A   Mostly Cloudy
9:56 AM 72.0 °F - 60.1 °F 66% 30.04 in 10.0 mi WNW 10.4 mph - N/A   Overcast
10:34 AM 75.2 °F - 59.0 °F 57% 30.04 in 10.0 mi WNW 9.2 mph 21.9 mph N/A   Mostly Cloudy
10:56 AM 73.9 °F - 57.9 °F 57% 30.03 in 10.0 mi WNW 11.5 mph - N/A   Scattered Clouds
11:56 AM 75.9 °F - 57.9 °F 54% 30.02 in 10.0 mi Variable 4.6 mph - N/A   Mostly Cloudy
12:56 PM 80.1 °F 80.2 °F 55.9 °F 43% 29.98 in 10.0 mi West 9.2 mph - N/A   Partly Cloudy
1:56 PM 82.0 °F 81.4 °F 55.0 °F 39% 29.94 in 10.0 mi WSW 8.1 mph - N/A   Scattered Clouds
2:56 PM 82.9 °F 82.1 °F 55.9 °F 39% 29.93 in 10.0 mi SW 9.2 mph 16.1 mph N/A   Mostly Cloudy
3:56 PM 82.0 °F 81.4 °F 55.0 °F 39% 29.90 in 10.0 mi West 12.7 mph 21.9 mph N/A   Partly Cloudy
4:56 PM 81.0 °F 80.7 °F 55.0 °F 41% 29.88 in 10.0 mi WSW 13.8 mph 21.9 mph N/A   Partly Cloudy
5:56 PM 78.1 °F - 54.0 °F 43% 29.88 in 10.0 mi WSW 4.6 mph 17.3 mph N/A   Clear
6:56 PM 75.0 °F - 55.0 °F 50% 29.90 in 10.0 mi SW 6.9 mph 16.1 mph N/A   Clear
7:56 PM 72.0 °F - 57.9 °F 61% 29.92 in 10.0 mi WSW 8.1 mph - N/A   Partly Cloudy
8:56 PM 71.1 °F - 59.0 °F 66% 29.94 in 10.0 mi WSW 8.1 mph - N/A   Mostly Cloudy
9:56 PM 69.1 °F - 60.1 °F 73% 29.93 in 10.0 mi Variable 3.5 mph - 0.01 in Rain Light Rain
10:56 PM 68.0 °F - 61.0 °F 78% 29.92 in 10.0 mi SSW 3.5 mph - 0.00 in   Mostly Cloudy
11:48 PM 68.0 °F - 62.6 °F 83% 29.91 in 9.0 mi Calm Calm - N/A   Overcast
11:56 PM 68.0 °F - 62.1 °F 81% 29.91 in 8.0 mi West 3.5 mph - 0.00 in Rain Light Rain